Weather History for Zanesville, OH

Change the Weather History Date:

Tuesday, December 31, 2013

  Actual Average Record
Temperature  
Mean Temperature 25 °F 29 °F  
Max Temperature 27 °F 37 °F 66 °F (1951)
Min Temperature 23 °F 21 °F -2 °F (1963)
Degree Days  
Heating Degree Days 40 36  
Month to date heating degree days 953 1006  
Since 1 July heating degree days 2129 2145  
Cooling Degree Days 0 0  
Month to date cooling degree days 0 0  
Year to date cooling degree days 856 768  
Moisture  
Dew Point 16 °F    
Average Humidity 69    
Maximum Humidity 81    
Minimum Humidity 57    
Precipitation  
Precipitation T in 0.08 in 0.75 in (1989)
Month to date precipitation 4.14 2.58  
Year to date precipitation 38.90 37.86  
Sea Level Pressure  
Sea Level Pressure 30.26 in    
Wind  
Wind Speed 9 mph (West)    
Max Wind Speed 21 mph    
Max Gust Speed 26 mph    
Visibility 6 miles    
Events Snow    
T = Trace of Precipitation, MM = Missing Value Source: NWS Daily Summary

Daily Weather History Graph

Daily Weather History Graph

Search for Another Location

Airport:

Trip Planner

Search our weather history database for the weather conditions in past years. The results will help you decide how hot, cold, wet, or windy it might be!

Date:

Astronomy

Dec. 31, 2013 Rise Set
Actual Time 7:49 AM EST 5:12 PM EST
Civil Twilight 7:18 AM EST 5:42 PM EST
Nautical Twilight 6:44 AM EST 6:16 PM EST
Astronomical Twilight 6:11 AM EST 6:49 PM EST
Moon 6:40 AM EST (12/31) 4:47 PM EST (12/31)
Length of Visible Light 10h 24m
Length of Day
9h 23m
Waning Crescent, 1% of the Moon is Illuminated
Dec 31
Waning Crescent
Jan 1
New
Jan 7
First Quarter
Jan 15
Full
Jan 24
Last Quarter

Hourly Weather History & Observations

Time (EST) Temp. Windchill Dew Point Humidity Pressure Visibility Wind Dir Wind Speed Gust Speed Precip Events Conditions
12:53 AM 26.1 °F 17.6 °F 17.1 °F 69% 30.17 in 10.0 mi WSW 8.1 mph - N/A   Overcast
1:53 AM 25.0 °F 16.3 °F 16.0 °F 69% 30.14 in 10.0 mi WSW 8.1 mph - N/A   Overcast
2:07 AM 24.8 °F 16.9 °F 15.8 °F 69% 30.11 in 10.0 mi WSW 6.9 mph - N/A   Overcast
2:45 AM 24.8 °F 16.9 °F 17.6 °F 74% 30.13 in 10.0 mi WSW 6.9 mph - N/A   Mostly Cloudy
2:53 AM 25.0 °F 17.1 °F 17.1 °F 72% 30.16 in 9.0 mi WSW 6.9 mph - N/A   Mostly Cloudy
3:25 AM 24.8 °F 14.6 °F 15.8 °F 69% 30.14 in 9.0 mi WSW 10.4 mph - N/A   Overcast
3:53 AM 25.0 °F 14.2 °F 15.1 °F 66% 30.16 in 10.0 mi WSW 11.5 mph - N/A   Overcast
4:53 AM 24.1 °F 16.0 °F 15.1 °F 69% 30.15 in 10.0 mi SW 6.9 mph - N/A   Overcast
5:53 AM 24.1 °F 16.0 °F 16.0 °F 71% 30.14 in 10.0 mi SSW 6.9 mph - N/A   Overcast
6:53 AM 25.0 °F 15.5 °F 15.1 °F 66% 30.15 in 10.0 mi SW 9.2 mph - N/A   Overcast
7:53 AM 25.0 °F 13.6 °F 14.0 °F 63% 30.15 in 10.0 mi West 12.7 mph 23.0 mph N/A   Overcast
8:53 AM 25.0 °F 11.7 °F 14.0 °F 63% 30.21 in 5.0 mi West 17.3 mph 25.3 mph 0.00 in Snow Light Snow
9:00 AM 24.8 °F 11.9 °F 14.0 °F 64% 30.18 in 2.5 mi West 16.1 mph 25.3 mph 0.00 in Snow Light Snow
9:32 AM 24.8 °F 14.0 °F 15.8 °F 69% 30.20 in 2.0 mi West 11.5 mph - 0.00 in Snow Light Snow
9:47 AM 24.8 °F 14.6 °F 15.8 °F 69% 30.21 in 1.8 mi West 10.4 mph - 0.00 in Snow Light Snow
9:53 AM 24.1 °F 13.1 °F 17.1 °F 75% 30.25 in 1.2 mi West 11.5 mph - 0.00 in Snow Light Snow
10:00 AM 24.8 °F 14.0 °F 17.6 °F 74% 30.23 in 1.8 mi West 11.5 mph 19.6 mph 0.00 in Snow Light Snow
10:11 AM 23.0 °F 10.6 °F 17.6 °F 80% 30.24 in 0.8 mi West 13.8 mph 20.7 mph 0.00 in Snow Light Snow
10:26 AM 23.0 °F 11.1 °F 17.6 °F 80% 30.25 in 1.2 mi West 12.7 mph - 0.00 in Snow Light Snow
10:35 AM 23.0 °F 12.4 °F 17.6 °F 80% 30.25 in 1.5 mi West 10.4 mph 19.6 mph 0.00 in Snow Light Snow
10:45 AM 23.0 °F 12.4 °F 17.6 °F 80% 30.26 in 1.2 mi West 10.4 mph - 0.00 in Snow Light Snow
10:53 AM 24.1 °F 12.0 °F 17.1 °F 75% 30.30 in 1.5 mi West 13.8 mph 21.9 mph 0.00 in Snow Light Snow
11:14 AM 23.0 °F 9.6 °F 17.6 °F 80% 30.28 in 0.8 mi West 16.1 mph 20.7 mph 0.00 in Snow Light Snow
11:53 AM 23.0 °F 10.6 °F 17.1 °F 78% 30.32 in 0.8 mi West 13.8 mph 23.0 mph 0.00 in Snow Light Snow
12:01 PM 23.0 °F 9.6 °F 17.6 °F 80% 30.29 in 1.5 mi West 16.1 mph 24.2 mph 0.00 in Snow Light Snow
12:07 PM 23.0 °F 10.6 °F 17.6 °F 80% 30.29 in 2.0 mi West 13.8 mph 24.2 mph 0.00 in Snow Light Snow
12:15 PM 24.8 °F 11.9 °F 17.6 °F 74% 30.29 in 1.8 mi West 16.1 mph 23.0 mph 0.00 in Snow Light Snow
12:22 PM 24.8 °F 11.9 °F 17.6 °F 74% 30.29 in 2.5 mi West 16.1 mph 23.0 mph 0.00 in Snow Light Snow
12:31 PM 24.8 °F 14.0 °F 17.6 °F 74% 30.30 in 1.5 mi West 11.5 mph - 0.00 in Snow Light Snow
12:41 PM 23.0 °F 10.6 °F 15.8 °F 74% 30.30 in 1.0 mi West 13.8 mph 24.2 mph 0.00 in Snow Light Snow
12:53 PM 23.0 °F 10.6 °F 16.0 °F 74% 30.34 in 0.8 mi West 13.8 mph 23.0 mph 0.00 in Snow Light Snow
1:04 PM 24.8 °F 12.9 °F 17.6 °F 74% 30.30 in 1.2 mi West 13.8 mph 20.7 mph 0.00 in Snow Light Snow
1:06 PM 24.8 °F 13.4 °F 15.8 °F 69% 30.30 in 2.0 mi West 12.7 mph 20.7 mph 0.00 in Snow Light Snow
1:10 PM 24.8 °F 12.4 °F 15.8 °F 69% 30.29 in 5.0 mi West 15.0 mph 21.9 mph 0.00 in   Haze
1:39 PM 24.8 °F 14.0 °F 15.8 °F 69% 30.29 in 7.0 mi West 11.5 mph 23.0 mph 0.00 in   Mostly Cloudy
1:53 PM 26.1 °F 12.0 °F 16.0 °F 66% 30.33 in 9.0 mi West 20.7 mph 25.3 mph 0.00 in   Overcast
2:05 PM 26.6 °F 15.2 °F 15.8 °F 64% 30.30 in 10.0 mi West 13.8 mph 19.6 mph N/A   Overcast
2:12 PM 26.6 °F 14.7 °F 15.8 °F 64% 30.30 in 10.0 mi West 15.0 mph 21.9 mph N/A   Overcast
2:28 PM 26.6 °F 14.7 °F 15.8 °F 64% 30.30 in 10.0 mi West 15.0 mph 24.2 mph N/A   Overcast
2:53 PM 25.0 °F 12.6 °F 14.0 °F 63% 30.34 in 10.0 mi West 15.0 mph 20.7 mph N/A   Scattered Clouds
3:53 PM 26.1 °F 16.2 °F 15.1 °F 63% 30.34 in 10.0 mi WSW 10.4 mph 19.6 mph N/A   Mostly Cloudy
4:53 PM 26.1 °F 18.4 °F 14.0 °F 60% 30.32 in 10.0 mi WSW 6.9 mph - N/A   Clear
5:53 PM 26.1 °F 20.5 °F 15.1 °F 63% 30.34 in 10.0 mi WSW 4.6 mph - N/A   Clear
6:53 PM 25.0 °F - 15.1 °F 66% 30.32 in 10.0 mi Calm Calm - N/A   Clear
7:53 PM 23.0 °F 18.4 °F 15.1 °F 72% 30.35 in 10.0 mi South 3.5 mph - N/A   Clear
8:53 PM 26.1 °F 20.5 °F 18.0 °F 71% 30.33 in 10.0 mi SSE 4.6 mph - N/A   Overcast
9:53 PM 25.0 °F - 16.0 °F 69% 30.32 in 10.0 mi Calm Calm - N/A   Partly Cloudy
10:53 PM 25.0 °F - 16.0 °F 69% 30.32 in 10.0 mi Calm Calm - N/A   Clear
11:53 PM 23.0 °F - 16.0 °F 74% 30.33 in 10.0 mi Calm Calm - N/A   Mostly Cloudy